AO-07 1 07530U 74089B 16258.90970706 -.00000040 00000-0 22475-4 0 9992 2 07530 101.5855 227.5153 0012202 134.7120 254.4390 12.53623046914364 FO-29 1 24278U 96046B 16259.38367665 -.00000009 00000-0 29335-4 0 9991 2 24278 98.5821 172.7883 0349955 329.2640 28.8412 13.53070625991719 RS-22 1 27939U 03042A 16259.83277833 .00000187 00000-0 42074-4 0 9990 2 27939 97.9018 48.0806 0013465 23.1142 86.4134 14.66450678693106 AO-73 1 39444U 13066AE 16259.14836744 .00000548 00000-0 74873-4 0 9990 2 39444 97.6720 308.8474 0060314 87.0576 273.7538 14.81166943150899 EO-79 1 40025U 14033R 16259.70201576 .00000571 00000-0 68028-4 0 9994 2 40025 97.9202 165.1046 0013784 123.0676 237.1866 14.88113728121665 XW-2A 1 40903U 15049E 16259.81261158 .00004024 00000-0 11300-3 0 9998 2 40903 97.4432 276.0844 0016155 164.3904 195.7842 15.37022926 55477 XW-2C 1 40906U 15049H 16259.86662168 .00001541 00000-0 88588-4 0 9996 2 40906 97.4551 265.0094 0017344 84.8590 275.4621 15.13839937 54725 LILACSAT-2 1 40908U 15049K 16259.81090089 .00000907 00000-0 55290-4 0 9999 2 40908 97.4617 264.7814 0018075 79.8356 280.4913 15.12696586 54687 UO-11 1 14781U 84021B 16258.78582548 .00000187 00000-0 29505-4 0 9996 2 14781 97.7401 308.0020 0009172 30.7548 329.4202 14.82791201749535 LO-19 1 20442U 90005G 16259.42844877 .00000004 00000-0 17655-4 0 9995 2 20442 98.5470 193.1303 0010711 236.9893 123.0262 14.32829169392271 AO-27 1 22825U 93061C 16258.85860294 .00000013 00000-0 22635-4 0 9998 2 22825 98.7691 215.7025 0009432 59.4026 300.8085 14.29967690198057 IO-26 1 22826U 93061D 16259.44230573 .00000022 00000-0 25886-4 0 9997 2 22826 98.7635 216.4042 0009848 49.4149 310.7889 14.30293678198309 GO-32 1 25397U 98043D 16259.80755856 -.00000011 00000-0 13838-4 0 9997 2 25397 98.5739 202.4280 0002434 82.0706 278.0749 14.23602365944751 NO-44 1 26931U 01043C 16258.90589196 -.00000011 00000-0 27561-4 0 9996 2 26931 067.0501 081.4387 0005394 264.5237 095.5249 14.30423750780900 SO-50 1 27607U 02058C 16258.92136580 .00000091 00000-0 33915-4 0 9998 2 27607 064.5540 246.6717 0058072 196.8446 163.0730 14.75207894738376 CO-55 1 27844U 03031E 16259.23858204 .00000092 00000-0 61585-4 0 9997 2 27844 98.6936 266.2353 0010800 65.5996 294.6307 14.21975950685243 CO-57 1 27848U 03031J 16259.30539635 .00000078 00000-0 55406-4 0 9992 2 27848 98.7033 266.4364 0010760 73.2720 286.9637 14.21599370685143 CO-65 1 32785U 08021C 16259.77252786 .00000456 00000-0 55750-4 0 9994 2 32785 97.5960 290.1890 0013189 4.2597 355.8730 14.87657707454096 PRISM 1 33493U 09002B 16259.89356184 .00000604 00000-0 60824-4 0 9994 2 33493 98.2043 124.2098 0014463 269.8739 90.0843 14.95124060414788 TISAT-1 1 36799U 10035E 16259.85276685 .00001015 00000-0 11125-3 0 9993 2 36799 98.0379 11.5752 0013414 143.6027 216.6104 14.89968716334929 ALMASAT-1 1 38078U 12006B 16259.22842737 .00033246 37629-5 41849-3 0 9992 2 38078 69.4462 144.8571 0366472 331.7225 26.4458 15.08238039243131 DUCHIFAT-1 1 40021U 14033M 16259.71181454 .00000878 00000-0 98128-4 0 9997 2 40021 97.9236 166.4166 0014378 121.0037 239.2594 14.89454675121733 NANOSATCBR1 1 40024U 14033Q 16259.72915714 .00000711 00000-0 81812-4 0 9993 2 40024 97.9209 165.7176 0013660 121.0252 239.2307 14.88844198121702 DTUSAT-2 1 40030U 14033W 16259.70573721 .00000577 00000-0 69293-4 0 9995 2 40030 97.9177 164.4824 0013341 117.4228 242.8347 14.87747578121636 ANTELSAT 1 40034U 14033AA 16259.61860060 .00000414 00000-0 69669-4 0 9991 2 40034 97.8911 145.5082 0060612 94.9341 265.8794 14.73465498120496 MET-2/21 1 22782U 93055A 16259.48719183 .00000021 00000-0 52434-5 0 9993 2 22782 82.5469 241.5651 0023726 119.6916 353.2126 13.83790730163704 NOAA-15 1 25338U 98030A 16259.61259551 .00000018 00000-0 75455-5 0 9998 2 25338 98.7855 263.9534 0009599 286.1829 73.8778 14.25752100954190 NOAA-18 1 28654U 05018A 16259.60344900 .00000208 00000-0 11309-3 0 9995 2 28654 99.1983 268.8878 0015182 119.4908 240.8259 14.12304380583497 NOAA-19 1 33591U 09005A 16259.57080501 .00000225 00000-0 12265-3 0 9992 2 33591 99.0490 217.1263 0013706 328.5400 31.5420 14.12106804392382 HUBBLE 1 20580U 90037B 16259.75812812 .00000922 00000-0 46455-4 0 9992 2 20580 28.4706 20.5571 0002992 100.3543 48.4328 15.08494825248809 ISS 1 25544U 98067A 16259.89704861 .00005628 00000-0 93086-4 0 9997 2 25544 51.6466 325.4779 0006068 322.5354 11.2903 15.53853174 19098 CO-58 1 28895U 05043F 16259.15634489 .00000261 00000-0 59267-4 0 9999 2 28895 97.8395 68.6070 0015656 296.2117 63.7476 14.63252381580262 AAUSAT2 1 32788U 08021F 16259.10009089 .00000653 00000-0 67358-4 0 9996 2 32788 97.5955 298.9715 0011342 337.0862 22.9851 14.93391300454611 DO-64 1 32789U 08021G 16259.64495455 .00003530 00000-0 26181-3 0 9997 2 32789 97.5983 317.2674 0012152 317.8121 42.2169 15.03672628455598 CO-66 1 32791U 08021J 16259.05343540 .00000685 00000-0 76714-4 0 9998 2 32791 97.5963 292.9675 0013266 354.3681 5.7385 14.89891872454177 RS-30 1 32953U 08025A 16259.82966875 .00000011 00000-0 71228-5 0 9998 2 32953 82.5023 50.2718 0019422 162.5106 197.6647 12.43071586377336 JUGNU 1 37839U 11058B 16259.50968699 .00000340 00000-0 39537-4 0 9998 2 37839 19.9617 315.9379 0019109 36.2022 95.6588 14.12552765254816 SRMSAT 1 37841U 11058D 16259.67930667 .00000330 00000-0 36239-4 0 9998 2 37841 19.9728 350.9475 0011784 306.6517 202.8798 14.10550371254489 AO-71 1 37854U 11061E 16259.67314383 .00005863 00000-0 32618-3 0 9999 2 37854 101.6974 347.9433 0171901 166.8035 193.7758 15.02667163265682 HRBE 1 37855U 11061F 16259.69048462 .00004536 00000-0 24917-3 0 9993 2 37855 101.7107 345.9793 0185645 171.3801 189.0672 15.01591611265575 HORYU-2 1 38340U 12025D 16258.91619645 .00000447 00000-0 74367-4 0 9997 2 38340 098.3625 247.3888 0013081 087.3019 272.9686 14.75113156222295 RS-40 1 38735U 12041C 16259.80701262 .00000039 00000-0 21071-3 0 9999 2 38735 82.4759 135.2833 0015974 267.5146 92.4105 12.42573106187610 BEESAT-3 1 39134U 13015E 16259.54612406 .00004569 00000-0 23290-3 0 9994 2 39134 64.8716 32.0258 0014634 309.6933 50.3407 15.16425413187811 BEESAT-2 1 39136U 13015G 16259.49768839 .00003173 00000-0 17328-3 0 9997 2 39136 64.8719 39.2922 0014327 309.3917 50.6440 15.13995553187679 ZACUBE-1 1 39417U 13066B 16259.10426680 .00000450 00000-0 63535-4 0 9995 2 39417 97.6708 308.0929 0061122 89.3533 271.4683 14.80480074152079 TRITON-1 1 39427U 13066M 16259.51876229 .00000363 00000-0 66260-4 0 9990 2 39427 97.6612 287.0275 0115546 147.6732 213.1624 14.67257356150765 GOMX-1 1 39430U 13066Q 16259.73609910 .00000287 00000-0 61367-4 0 9997 2 39430 97.6675 273.7898 0151973 189.1516 170.6900 14.58667556149923 LO-74 1 39440U 13066AA 16259.15996065 .00000436 00000-0 68062-4 0 9999 2 39440 97.6652 299.5836 0082505 111.8762 249.1247 14.75235917151544 SPROUT 1 39770U 14029E 16259.76038596 .00001195 00000-0 14425-3 0 9994 2 39770 97.8736 355.9876 0010323 140.9699 219.2295 14.85606960125382 EO-80 1 40032U 14033Y 16259.73587692 .00000583 00000-0 70027-4 0 9996 2 40032 97.9185 164.5215 0013295 117.6041 242.6527 14.87681861121635 VELOX-1 1 40057U 14034E 16259.72206002 .00000609 00000-0 94473-4 0 9996 2 40057 98.1941 349.8794 0010207 212.0635 147.9949 14.76815908119242 DAURIA DX 1 1 40071U 14037C 16259.75050782 .00000235 00000-0 37822-4 0 9990 2 40071 98.3316 354.1528 0007666 207.6598 152.4211 14.80870244118356 UKUBE-1 1 40074U 14037F 16259.81731316 .00000647 00000-0 86406-4 0 9998 2 40074 98.3366 356.7481 0003949 202.2184 157.8850 14.83185210118502 HODOYOSHI-1 1 40299U 14070B 16259.76354314 .00001432 00000-0 66527-4 0 9992 2 40299 97.4260 340.4466 0012955 342.0480 116.7917 15.21567784103208 CHUBUSAT-1 1 40300U 14070C 16259.86430874 .00001624 00000-0 77979-4 0 9998 2 40300 97.4211 338.5201 0020878 346.3473 106.8365 15.20101607103107 QSAT-EOS 1 40301U 14070D 16259.86920788 .00003211 00000-0 14380-3 0 9997 2 40301 97.4154 337.9812 0028324 343.5093 124.2796 15.21630781103097 FIREBIRD FU3 1 40377U 15003B 16259.81312689 .00007697 00000-0 34206-3 0 9998 2 40377 99.0954 23.9191 0142046 190.0696 169.7679 15.13224029 89485 FIREBIRD FU4 1 40378U 15003C 16259.80889304 .00007602 00000-0 33754-3 0 9994 2 40378 99.0955 23.9326 0142253 190.0211 169.8173 15.13234560 89481 GRIFEX 1 40379U 15003D 16259.78862972 .00005045 00000-0 23589-3 0 9998 2 40379 99.0956 22.7685 0146618 194.5276 165.1714 15.11305644 89410 NO-84 1 40654U 15025D 16259.32377161 .00008731 00000-0 18882-3 0 02234 2 40654 055.0020 019.9012 0198370 297.8100 060.2950 15.27237710037805 NO-83 1 40655U 15025E 16259.31116831 .00014428 00000-0 27600-3 0 02451 2 40655 054.9888 010.2650 0177934 302.5544 055.8519 15.32995040037913 DEORBITSAIL 1 40719U 15032E 16259.20487810 .00000737 00000-0 11528-3 0 9992 2 40719 98.0052 149.9978 0015761 312.0808 47.9060 14.75676359 63767 NUDT-PHONESAT 1 40900U 15049B 16259.78509509 .00004610 00000-0 23257-3 0 9991 2 40900 97.4456 265.9465 0016814 100.8560 259.4567 15.17497578 54817 XW-2D 1 40907U 15049J 16259.86492536 .00001709 00000-0 97723-4 0 9994 2 40907 97.4518 264.8511 0016716 83.4113 276.9021 15.13897107 54721 XW-2F 1 40910U 15049M 16259.86827742 .00002295 00000-0 12793-3 0 9993 2 40910 97.4541 265.1447 0017772 82.3388 277.9862 15.14462333 54621 XW-2B 1 40911U 15049N 16259.86553301 .00001632 00000-0 93520-4 0 9993 2 40911 97.4565 265.0783 0016607 83.6292 276.6830 15.13875227 54624 DCBB 1 40912U 15049P 16259.83310281 .00002612 00000-0 13722-3 0 9993 2 40912 97.4547 266.1467 0018251 77.8135 4.2012 15.16442742 54693 TW-1C 1 40926U 15051B 16259.88505934 .00010366 00000-0 27882-3 0 9994 2 40926 97.2682 295.8600 0015565 84.3328 40.3160 15.37943190 54697 TW-1A 1 40928U 15051D 16259.83401374 .00003980 00000-0 12322-3 0 9991 2 40928 97.2635 294.4318 0015706 100.7767 313.6802 15.33926839 54613 IO-86 1 40931U 15052B 16259.66285702 .00000638 00000-0 -11911-6 0 9996 2 40931 5.9985 30.0667 0013457 322.0953 37.8225 14.76480697 52322 GomX-3 1 40949U 98067HA 16259.60761028 .00204647 27720-4 48722-3 0 9990 2 40949 51.6235 281.7497 0004637 26.0022 334.1219 15.96221804 54415 LQSat 1 40958U 15057A 16259.80066937 .00000096 00000-0 22768-4 0 9990 2 40958 98.0087 333.4733 0017204 221.6054 138.3841 14.72897697 50722 AO-85 1 40967U 15058D 16259.42857897 .00000807 00000-0 10691-3 0 02570 2 40967 064.7800 332.1863 0193006 176.3435 183.9102 14.75153792036587 ATHENOXAT-1 1 41168U 15077C 16259.66745065 .00003701 00000-0 17924-3 0 9999 2 41168 14.9863 13.2364 0011734 174.8568 310.1383 15.10371136 41458 ChubuSat-2 1 41338U 16012B 16259.72127728 .00000748 00000-0 52578-4 0 9998 2 41338 31.0037 55.1072 0014082 223.6737 136.2784 14.99485179 31754 ChubuSat-3 1 41339U 16012C 16259.75516753 .00000679 00000-0 46806-4 0 9992 2 41339 31.0112 54.5014 0014158 230.3663 129.5731 14.99709694 31731 Horyu-4 1 41340U 16012D 16258.83534313 .00001064 00000-0 76268-4 0 9998 2 41340 31.0055 59.4664 0014403 226.7255 133.2179 15.00177677 31622 OUFTI-1 1 41458U 16025C 16259.26126441 .00004182 00000-0 23320-3 0 9993 2 41458 98.2092 274.9018 0178575 127.2876 234.4780 15.01568798 21293 e-st@r-II 1 41459U 16025D 16259.79575442 .00003946 00000-0 22068-3 0 9996 2 41459 98.2092 275.4563 0178487 125.5453 236.2559 15.01526282 21374 AAUSAT4 1 41460U 16025E 16259.77676564 .00004108 00000-0 22912-3 0 9992 2 41460 98.2120 275.4930 0176126 124.5219 237.2769 15.01885466 21379 MinXSS 1 41474U 98067HU 16259.80464708 .00048641 00000-0 54774-3 0 9993 2 41474 51.6429 322.5716 0002007 70.2535 289.8675 15.62057648 19072 CADRE 1 41475U 98067HV 16259.81291092 .00076339 00000-0 73349-3 0 9993 2 41475 51.6392 321.1065 0002544 25.0200 335.0919 15.65899598 19095 NODES 1 1 41477U 98067HX 16259.54697182 .00029696 00000-0 36307-3 0 9992 2 41477 51.6400 324.5856 0002097 63.5808 296.5400 15.60152027 18938 NODES 2 1 41478U 98067HY 16259.61416275 .00029199 00000-0 35792-3 0 9998 2 41478 51.6399 324.2833 0002010 62.8002 297.3196 15.60093022 18942 NuSat1-LUSEX 1 41557U 16033B 16259.82410640 .00002753 00000-0 11058-3 0 9998 2 41557 97.4920 333.1409 0013172 253.1484 201.8405 15.25750331 16570 NuSat2 1 41558U 16033C 16259.83394947 .00002881 00000-0 11608-3 0 9994 2 41558 97.4943 333.1588 0012791 250.6429 203.5975 15.25613197 16570 Lapan A3 1 41603U 16040E 16259.85785255 .00000327 00000-0 18865-4 0 9997 2 41603 97.5036 318.4798 0012692 317.1435 163.4682 15.19120739 13002 Swayam 1 41607U 16040J 16259.63703838 .00003425 00000-0 16501-3 0 9990 2 41607 97.5005 318.2359 0013671 319.6195 40.4023 15.19349155 12895 /EX